This is the latest recevied weather packets stored in our database for station/object JO1YDG-13. If no packets are shown the sender has not sent any weather packets the latest 10 day(s).
| Time | Temp. | Humidity | Pressure | Rain* | Wind** | Luminosity | Snow |
|---|---|---|---|---|---|---|---|
| 1777771767 | 21.11° C | 48% | 983.2 hPa | 0 mm | - | - | - |
| 1777771469 | 20.56° C | 50% | 983.6 hPa | 0 mm | - | - | - |
| 1777771169 | 21.11° C | 53% | 983.6 hPa | 0 mm | - | - | - |
| 1777770869 | 20.56° C | 51% | 983.6 hPa | 0 mm | - | - | - |
| 1777770569 | 20.56° C | 52% | 983.6 hPa | 0 mm | - | - | - |
| 1777770268 | 20° C | 53% | 983.6 hPa | 0 mm | - | - | - |
| 1777769969 | 20° C | 54% | 983.7 hPa | 0 mm | - | - | - |
| 1777769669 | 20° C | 53% | 983.7 hPa | 0 mm | - | - | - |
| 1777769369 | 20° C | 55% | 984.1 hPa | 0 mm | - | - | - |
| 1777769069 | 19.44° C | 57% | 984.1 hPa | 0 mm | - | - | - |
| 1777768769 | 19.44° C | 56% | 984.3 hPa | 0 mm | - | - | - |
| 1777768468 | 18.89° C | 57% | 984.4 hPa | 0 mm | - | - | - |
| 1777768168 | 18.89° C | 60% | 984.4 hPa | 0 mm | - | - | - |
| 1777767868 | 18.89° C | 60% | 984.5 hPa | 0 mm | - | - | - |
| 1777767568 | 18.33° C | 61% | 984.5 hPa | 0 mm | - | - | - |
| 1777767268 | 18.33° C | 61% | 984.6 hPa | 0 mm | - | - | - |
| 1777766969 | 18.33° C | 61% | 984.6 hPa | 0 mm | - | - | - |
| 1777766668 | 18.33° C | 61% | 984.6 hPa | 0 mm | - | - | - |
| 1777766368 | 18.33° C | 61% | 984.8 hPa | 0 mm | - | - | - |
| 1777766068 | 18.33° C | 62% | 984.8 hPa | 0 mm | - | - | - |
| 1777765768 | 18.33° C | 61% | 984.8 hPa | 0 mm | - | - | - |
| 1777765468 | 17.78° C | 62% | 984.8 hPa | 0 mm | - | - | - |
| 1777765169 | 17.78° C | 62% | 984.8 hPa | 0 mm | - | - | - |
| 1777764868 | 17.22° C | 63% | 984.8 hPa | 0 mm | - | - | - |
| 1777764568 | 17.22° C | 63% | 984.8 hPa | 0 mm | - | - | - |
* Rain latest hour (hover to see other rain measurements)
** Current wind speed in m/s (hover to see current wind gust speed)